User: anonymous   Login
Location: El Portezuelo
(28.4984°N, 16.3589°W)
Time: 21:02:06
(UTC+00:00)
Language:

CZ-3 Stage 3 - Orbit

View from above orbital plane
View from above orbital plane
View from above satellite
View from above satellite

Ground track
Ground track

The orbit data is extracted from the following two-line orbital elements,

1 14900U 84035B   20088.04230858 -.00000090 +00000-0 -18114-5 0  9993
2 14900 030.9795 057.4711 7167696 180.9839 176.0749 02.33887774238516
Epoch (UTC): 28 March 2020 01:00:55
Eccentricity: 0.7167696
inclination: 30.9795°
perigee height: 412 km
apogee height: 34778 km
right ascension of ascending node: 57.4711°
argument of perigee: 180.9839°
revolutions per day: 2.33887774
mean anomaly at epoch: 176.0749°
orbit number at epoch: 23851

The dashed part of the orbit path shows where the satellite is in the earth's shadow,  

DLR